Location: Casalecchio di Reno
(44.4760°N, 11.2757°E)
Time: 13:33:22
(UTC+02:00)

UWE-3 - Pass Details

Date: 25 June 2024
Orbit: 566 x 652 km, 97.8° (Epoch: 11 July)

Event Time Altitude Azimuth Distance (km) Brightness Sun altitude
Rises 03:58:22 0° 11° (N) 2,867 ? -12.8°
Reaches altitude 10° 04:00:35 10° 9° (N) 1,945 ? -12.6°
Maximum altitude 04:04:47 75° 285° (WNW) 612 ? -12.1°
Enters shadow 04:08:00 16° 201° (SSW) 1,533 ? -11.8°
